Weather History for Victorville, CA

Change the Weather History Date:

Monday, October 15, 2012

  Actual Average (KSBD) Record (KSBD)
Temperature  
Mean Temperature 66 °F -  
Max Temperature 84 °F 81 °F 93 °F (2012)
Min Temperature 48 °F 51 °F 50 °F (2013)
Cooling Degree Days 1    
Growing Degree Days 16 (Base 50)    
Moisture  
Dew Point 32 °F    
Average Humidity 31    
Maximum Humidity 62    
Minimum Humidity 13    
Precipitation  
Precipitation 0.00 in - - ()
Sea Level Pressure  
Sea Level Pressure 30.05 in    
Wind  
Wind Speed 5 mph (SSE)    
Max Wind Speed 9 mph    
Max Gust Speed -    
Visibility 10 miles    
Events      
Averages and records for this station are not official NWS values.
T = Trace of Precipitation, MM = Missing Value Source: NWS Daily Summary

Daily Weather History Graph

Daily Weather History Graph

Search for Another Location

Airport:

Trip Planner

Search our weather history database for the weather conditions in past years. The results will help you decide how hot, cold, wet, or windy it might be!

Date:

Astronomy

Oct. 15, 2012 Rise Set
Actual Time 6:55 AM PDT 6:14 PM PDT
Civil Twilight 6:30 AM PDT 6:39 PM PDT
Nautical Twilight 6:00 AM PDT 7:08 PM PDT
Astronomical Twilight 5:31 AM PDT 7:37 PM PDT
Moon 7:08 AM PDT (10/15) 6:20 PM PDT (10/15)
Length of Visible Light 12h 09m
Length of Day
11h 18m
New Moon, 0% of the Moon is Illuminated
Oct 15
New Moon
Oct 21
First Quarter
Oct 29
Full
Nov 6
Last Quarter
Nov 13
New

Hourly Weather History & Observations

Time (PDT) Temp. Dew Point Humidity Pressure Visibility Wind Dir Wind Speed Gust Speed Precip Events Conditions
12:15 AM 57.2 °F 33.8 °F 41% 30.13 in 10.0 mi Calm Calm - N/A   Clear
12:35 AM 55.4 °F 33.8 °F 44% 30.11 in 10.0 mi SSE 4.6 mph - N/A   Clear
12:55 AM 57.2 °F 33.8 °F 41% 30.12 in 10.0 mi ESE 4.6 mph - N/A   Clear
1:15 AM 55.4 °F 33.8 °F 44% 30.10 in 10.0 mi SE 5.8 mph - N/A   Clear
1:35 AM 53.6 °F 33.8 °F 47% 30.10 in 10.0 mi SE 6.9 mph - N/A   Clear
1:55 AM 57.2 °F 35.6 °F 44% 30.11 in 10.0 mi SE 6.9 mph - N/A   Clear
2:15 AM 57.2 °F 35.6 °F 44% 30.11 in 10.0 mi SE 6.9 mph - N/A   Clear
2:55 AM 51.8 °F 33.8 °F 50% 30.09 in 10.0 mi South 5.8 mph - N/A   Clear
3:15 AM 51.8 °F 35.6 °F 54% 30.08 in 10.0 mi South 5.8 mph - N/A   Clear
3:35 AM 51.8 °F 35.6 °F 54% 30.07 in 10.0 mi SE 8.1 mph - N/A   Clear
3:55 AM 53.6 °F 35.6 °F 51% 30.07 in 10.0 mi SSE 5.8 mph - N/A   Clear
4:15 AM 55.4 °F 35.6 °F 47% 30.07 in 10.0 mi SE 6.9 mph - N/A   Clear
4:35 AM 51.8 °F 35.6 °F 54% 30.07 in 10.0 mi SSE 6.9 mph - N/A   Clear
5:15 AM 51.8 °F 35.6 °F 54% 30.07 in 10.0 mi South 5.8 mph - N/A   Clear
5:35 AM 48.2 °F 35.6 °F 62% 30.07 in 10.0 mi SSE 6.9 mph - N/A   Clear
5:55 AM 48.2 °F 35.6 °F 62% 30.07 in 10.0 mi South 4.6 mph - N/A   Clear
6:15 AM 50.0 °F 35.6 °F 58% 30.08 in 10.0 mi South 5.8 mph - N/A   Clear
6:35 AM 48.2 °F 35.6 °F 62% 30.08 in 10.0 mi South 5.8 mph - N/A   Clear
6:55 AM 48.2 °F 35.6 °F 62% 30.07 in 10.0 mi South 4.6 mph - N/A   Clear
7:15 AM 51.8 °F 35.6 °F 54% 30.07 in 10.0 mi SSE 5.8 mph - N/A   Clear
7:35 AM 53.6 °F 35.6 °F 51% 30.08 in 10.0 mi ESE 6.9 mph - N/A   Clear
7:55 AM 55.4 °F 35.6 °F 47% 30.09 in 10.0 mi South 3.5 mph - N/A   Clear
8:15 AM 59.0 °F 33.8 °F 39% 30.11 in 10.0 mi South 4.6 mph - N/A   Clear
8:35 AM 60.8 °F 33.8 °F 36% 30.11 in 10.0 mi SSW 3.5 mph - N/A   Clear
8:55 AM 62.6 °F 33.8 °F 34% 30.12 in 10.0 mi SSW 4.6 mph - N/A   Clear
9:15 AM 64.4 °F 33.8 °F 32% 30.12 in 10.0 mi SSW 4.6 mph - N/A   Clear
9:35 AM 68.0 °F 35.6 °F 30% 30.11 in 10.0 mi Calm Calm - N/A   Clear
9:55 AM 71.6 °F 35.6 °F 27% 30.11 in 10.0 mi ESE 4.6 mph - N/A   Clear
10:15 AM 71.6 °F 35.6 °F 27% 30.10 in 10.0 mi SE 5.8 mph - N/A   Scattered Clouds
10:35 AM 73.4 °F 35.6 °F 25% 30.09 in 10.0 mi ESE 8.1 mph - N/A   Scattered Clouds
10:55 AM 75.2 °F 35.6 °F 24% 30.09 in 10.0 mi ESE 8.1 mph - N/A   Scattered Clouds
11:15 AM 77.0 °F 37.4 °F 24% 30.09 in 10.0 mi East 4.6 mph - N/A   Scattered Clouds
11:35 AM 75.2 °F 37.4 °F 25% 30.09 in 10.0 mi Calm Calm - N/A   Scattered Clouds
11:55 AM 78.8 °F 37.4 °F 23% 30.08 in 10.0 mi NNE 3.5 mph - N/A   Clear
12:15 PM 80.6 °F 35.6 °F 20% 30.07 in 10.0 mi North 4.6 mph - N/A   Clear
12:35 PM 78.8 °F 35.6 °F 21% 30.06 in 10.0 mi Calm Calm - N/A   Clear
12:55 PM 82.4 °F 35.6 °F 19% 30.05 in 10.0 mi NNE 3.5 mph - N/A   Clear
1:15 PM 80.6 °F 32.0 °F 17% 30.04 in 10.0 mi Calm Calm - N/A   Clear
1:35 PM 82.4 °F 32.0 °F 16% 30.03 in 10.0 mi Calm Calm - N/A   Clear
1:55 PM 82.4 °F 32.0 °F 16% 30.02 in 10.0 mi Calm Calm - N/A   Clear
2:15 PM 82.4 °F 32.0 °F 16% 30.01 in 10.0 mi Calm Calm - N/A   Clear
2:35 PM 82.4 °F 30.2 °F 15% 30.01 in 10.0 mi North 3.5 mph - N/A   Clear
2:55 PM 84.2 °F 30.2 °F 14% 30.00 in 10.0 mi NNW 8.1 mph - N/A   Clear
3:15 PM 84.2 °F 28.4 °F 13% 30.00 in 10.0 mi NNE 5.8 mph - N/A   Clear
3:35 PM 84.2 °F 28.4 °F 13% 29.99 in 10.0 mi Calm Calm - N/A   Clear
3:55 PM 84.2 °F 28.4 °F 13% 29.99 in 10.0 mi North 6.9 mph - N/A   Clear
4:15 PM 84.2 °F 28.4 °F 13% 29.98 in 10.0 mi Calm Calm - N/A   Clear
4:35 PM 84.2 °F 28.4 °F 13% 29.98 in 10.0 mi NW 4.6 mph - N/A   Clear
4:55 PM 84.2 °F 28.4 °F 13% 29.98 in 10.0 mi North 4.6 mph - N/A   Clear
5:15 PM 82.4 °F 28.4 °F 14% 29.97 in 10.0 mi North 4.6 mph - N/A   Clear
5:35 PM 82.4 °F 28.4 °F 14% 29.97 in 10.0 mi North 5.8 mph - N/A   Clear
5:55 PM 80.6 °F 28.4 °F 15% 29.97 in 10.0 mi North 5.8 mph - N/A   Clear
6:15 PM 78.8 °F 28.4 °F 16% 29.97 in 10.0 mi North 6.9 mph - N/A   Clear
6:35 PM 77.0 °F 28.4 °F 17% 29.98 in 10.0 mi North 5.8 mph - N/A   Clear
6:55 PM 75.2 °F 26.6 °F 17% 29.98 in 10.0 mi North 5.8 mph - N/A   Clear
7:15 PM 73.4 °F 28.4 °F 19% 29.98 in 10.0 mi North 4.6 mph - N/A   Clear
7:35 PM 73.4 °F 28.4 °F 19% 29.98 in 10.0 mi NNE 4.6 mph - N/A   Clear
7:55 PM 73.4 °F 26.6 °F 18% 29.98 in 10.0 mi NNE 4.6 mph - N/A   Clear
8:15 PM 69.8 °F 26.6 °F 20% 29.99 in 10.0 mi WNW 3.5 mph - N/A   Clear
8:35 PM 66.2 °F 26.6 °F 23% 29.99 in 10.0 mi SW 4.6 mph - N/A   Clear
8:55 PM 64.4 °F 28.4 °F 26% 30.01 in 10.0 mi South 5.8 mph - N/A   Clear
9:15 PM 62.6 °F 32.0 °F 32% 30.02 in 10.0 mi South 3.5 mph - N/A   Clear
9:35 PM 64.4 °F 28.4 °F 26% 30.03 in 10.0 mi SSW 8.1 mph - N/A   Clear
9:55 PM 62.6 °F 28.4 °F 27% 30.03 in 10.0 mi SSW 9.2 mph - N/A   Clear
10:15 PM 62.6 °F 30.2 °F 30% 30.03 in 10.0 mi SSW 8.1 mph - N/A   Clear
10:35 PM 62.6 °F 30.2 °F 30% 30.03 in 10.0 mi SSW 8.1 mph - N/A   Clear
10:55 PM 62.6 °F 30.2 °F 30% 30.03 in 10.0 mi SSW 8.1 mph - N/A   Clear
11:15 PM 60.8 °F 30.2 °F 31% 30.03 in 10.0 mi SSW 6.9 mph - N/A   Clear
11:35 PM 60.8 °F 30.2 °F 31% 30.03 in 10.0 mi SSW 6.9 mph - N/A   Clear
11:55 PM 60.8 °F 30.2 °F 31% 30.02 in 10.0 mi SSW 6.9 mph - N/A   Clear